FW4179 Weather Reports


time (UTC)temp
F
wind
direction
speed
knots
gust
knots
rain 1hr
in
rain 24hr
in
rain mn
in
humidity
%
barometer
mb
20260510201549 81 279 1.7 5.2 0.00 0.00 0.00 48 1016.6
20260510200049 81 189 1.7 7.0 0.00 0.00 0.00 45 1016.6
20260510194601 81 197 1.7 5.2 0.00 0.00 0.00 46 1016.7
20260510193050 80 243 1.7 6.1 0.00 0.00 0.00 46 1016.9
20260510191554 80 324 0.0 4.3 0.00 0.00 0.00 49 1016.9
20260510190104 80 266 1.7 6.1 0.00 0.00 0.00 49 1017.0
20260510184545 80 313 3.5 7.8 0.00 0.00 0.00 50 1017.3
20260510183045 80 192 0.9 4.3 0.00 0.00 0.00 50 1017.4
20260510181613 79 227 0.9 5.2 0.00 0.00 0.00 52 1017.3
20260510180056 79 281 1.7 6.1 0.00 0.00 0.00 51 1017.3
20260510174559 78 284 3.5 8.7 0.00 0.00 0.00 51 1017.5
20260510173049 78 0 1.7 5.2 0.00 0.00 0.00 53 1017.9
20260510171558 77 198 1.7 3.5 0.00 0.00 0.00 54 1017.8
20260510170051 77 295 1.7 6.1 0.00 0.00 0.00 62 1017.9
20260510164559 76 214 0.9 6.1 0.00 0.00 0.00 61 1017.9
20260510163051 76 263 2.6 6.1 0.00 0.00 0.00 55 1017.8
20260510161545 76 0 0.9 7.0 0.00 0.00 0.00 63 1017.8
20260510160048 75 0 0.0 4.3 0.00 0.00 0.00 68 1017.9
20260510154543 73 0 0.9 4.3 0.00 0.00 0.00 69 1018.1
20260510153056 72 232 0.9 4.3 0.00 0.00 0.00 73 1018.2
20260510151547 72 174 0.9 3.5 0.00 0.00 0.00 80 1018.0
20260510150053 70 297 0.0 4.3 0.00 0.00 0.00 83 1018.1
20260510144601 69 269 1.7 6.1 0.00 0.00 0.00 85 1018.2
20260510143049 69 277 1.7 3.5 0.00 0.00 0.00 87 1018.0
20260510141548 67 0 0.0 2.6 0.00 0.00 0.00 88 1017.9
20260510140048 66 0 0.0 3.5 0.00 0.00 0.00 93 1017.8
20260510134545 64 130 0.0 2.6 0.00 0.00 0.00 94 1017.7
20260510133048 63 0 0.0 4.3 0.00 0.00 0.00 95 1017.7
20260510131548 62 142 0.9 4.3 0.00 0.00 0.00 95 1017.7
20260510130054 61 0 1.7 4.3 0.00 0.00 0.00 97 1017.6
20260510124547 60 0 0.0 3.5 0.00 0.00 0.00 97 1017.5
20260510123045 59 140 1.7 3.5 0.00 0.00 0.00 97 1017.4
20260510121545 57 139 0.9 4.3 0.00 0.00 0.00 97 1017.3
20260510120043 57 135 1.7 4.3 0.00 0.00 0.00 97 1017.2
20260510114557 57 0 0.0 2.6 0.00 0.00 0.00 98 1016.9
20260510113055 56 140 1.7 5.2 0.00 0.00 0.00 98 1016.7
20260510111545 55 0 0.0 3.5 0.00 0.00 0.00 98 1016.6
20260510110055 55 0 0.0 0.0 0.00 0.00 0.00 98 1016.6
20260510104542 54 0 0.0 0.0 0.00 0.00 0.00 98 1016.3
20260510103054 54 0 0.0 0.0 0.00 0.00 0.00 97 1016.2
20260510101559 54 0 0.0 0.0 0.00 0.00 0.00 97 1016.0
20260510100053 54 0 0.0 0.0 0.00 0.00 0.00 97 1015.7
20260510094551 54 0 0.0 0.0 0.00 0.00 0.00 96 1015.8
20260510093055 55 0 0.0 0.0 0.00 0.00 0.00 96 1015.5
20260510091551 54 0 0.0 0.0 0.00 0.00 0.00 96 1015.4
20260510090052 55 0 0.0 0.0 0.00 0.00 0.00 95 1015.4
20260510084603 55 0 0.0 0.0 0.00 0.00 0.00 96 1015.0
20260510083045 55 0 0.0 0.0 0.00 0.00 0.00 96 1014.8
20260510081551 55 0 0.0 0.0 0.00 0.00 0.00 96 1014.6
20260510080059 55 0 0.0 0.0 0.00 0.00 0.00 96 1014.5
20260510074600 56 0 0.0 0.0 0.00 0.00 0.00 95 1014.4
20260510073051 56 0 0.0 0.0 0.00 0.00 0.00 96 1014.3
20260510071549 56 0 0.0 0.0 0.00 0.00 0.00 95 1014.4
20260510064549 56 0 0.0 0.0 0.00 0.00 0.00 94 1014.5
20260510063050 57 0 0.0 0.0 0.00 0.00 0.00 94 1014.5
20260510061547 57 0 0.0 0.0 0.00 0.00 0.00 93 1014.5
20260510060048 57 0 0.0 0.0 0.00 0.00 0.00 93 1014.5
20260510054549 58 0 0.0 0.0 0.00 0.00 0.00 92 1014.5
20260510053053 58 0 0.0 0.0 0.00 0.00 0.00 92 1014.7
20260510051601 58 0 0.0 0.0 0.00 0.00 0.00 91 1014.7
20260510050059 59 0 0.0 0.0 0.00 0.00 0.00 90 1014.4
20260510044543 59 0 0.0 0.0 0.00 0.00 0.00 89 1014.4
20260510043046 59 0 0.0 0.0 0.00 0.00 0.00 88 1014.5
20260510041548 60 0 0.0 0.0 0.00 0.00 0.00 88 1014.4
20260510040100 60 0 0.0 0.0 0.00 0.00 0.00 87 1014.3
20260510034550 61 0 0.0 0.0 0.00 0.00 0.00 86 1014.3
20260510033054 61 0 0.0 4.3 0.00 0.00 0.00 85 1014.5
20260510031552 62 0 0.0 2.6 0.00 0.00 0.00 83 1014.4
20260510030048 63 0 0.0 3.5 0.00 0.00 0.00 81 1014.3
20260510024548 64 0 0.0 0.0 0.00 0.00 0.00 79 1014.0
20260510023045 64 0 0.0 0.0 0.00 0.00 0.00 79 1013.8
20260510021635 64 0 0.0 4.3 0.00 0.00 0.00 79 1013.7
20260510020051 65 0 0.0 0.0 0.00 0.00 0.00 75 1013.5
20260510014552 65 0 0.0 0.0 0.00 0.00 0.00 74 1013.2
20260510013057 66 0 0.0 0.0 0.00 0.00 0.00 72 1013.1
20260510011549 67 0 0.0 0.0 0.00 0.00 0.00 70 1012.8
20260510010054 68 0 0.0 0.0 0.00 0.00 0.00 68 1012.7
20260510004552 69 0 0.0 0.0 0.00 0.00 0.00 66 1012.6
20260510003052 70 0 0.0 0.0 0.00 0.00 0.00 67 1012.5
20260510001545 71 0 0.0 0.0 0.00 0.00 0.00 66 1012.4
20260510000048 71 0 0.0 0.0 0.00 0.00 0.00 66 1012.1
20260509234543 72 0 0.9 2.6 0.00 0.00 0.00 64 1012.0
20260509233044 72 0 0.0 1.7 0.00 0.00 0.00 65 1011.8
20260509231552 72 0 0.0 1.7 0.00 0.00 0.00 64 1011.8
20260509230052 73 290 0.9 3.5 0.00 0.00 0.00 62 1012.0
20260509224544 73 0 0.9 3.5 0.00 0.00 0.00 63 1011.8
20260509223052 73 0 0.0 5.2 0.00 0.00 0.00 64 1011.8
20260509221549 73 0 0.9 5.2 0.00 0.00 0.00 67 1011.8
20260509220053 73 227 2.6 4.3 0.00 0.00 0.00 65 1011.8
20260509214549 73 229 1.7 4.3 0.00 0.00 0.00 69 1011.6
20260509213105 73 236 2.6 5.2 0.00 0.00 0.00 67 1011.7
20260509211549 72 196 1.7 6.1 0.00 0.00 0.00 71 1011.7
20260509210050 73 248 0.9 3.5 0.00 0.00 0.00 66 1011.6
20260509204549 74 260 0.9 6.1 0.00 0.00 0.00 65 1011.4
20260509203050 74 284 2.6 7.0 0.00 0.00 0.00 65 1011.5